Time,TemperatureF,DewpointF,PressureIn,WindDirection,WindDirectionDegrees,WindSpeedMPH,WindSpeedGustMPH,Humidity,HourlyPrecipIn,Conditions,Clouds,dailyrainin,SoftwareType,DateUTC
2013-07-02 00:33:00,68.0,65.0,29.86,North,0,0.0,-999.0,90,0.00,,,-99.99,,2013-07-02 07:33:00,
2013-07-02 00:44:00,68.0,65.0,29.86,North,0,0.0,-999.0,90,0.00,,,-99.99,,2013-07-02 07:44:00,
2013-07-02 01:33:00,68.0,65.0,29.86,North,0,0.0,-999.0,91,0.00,,,-99.99,,2013-07-02 08:33:00,
2013-07-02 01:44:00,68.0,65.0,29.86,North,0,0.0,-999.0,91,0.00,,,-99.99,,2013-07-02 08:44:00,
2013-07-02 02:33:00,67.0,64.0,29.86,WNW,290,1.0,-999.0,91,0.00,,,-99.99,,2013-07-02 09:33:00,
2013-07-02 02:43:00,67.0,64.0,29.86,WNW,290,1.0,-999.0,91,0.00,,,-99.99,,2013-07-02 09:43:00,
2013-07-02 03:33:00,67.0,65.0,29.87,North,0,0.0,-999.0,92,0.00,,,-99.99,,2013-07-02 10:33:00,
2013-07-02 03:43:00,67.0,65.0,29.87,North,0,0.0,-999.0,92,0.00,,,-99.99,,2013-07-02 10:43:00,
2013-07-02 04:33:00,67.0,65.0,29.87,SSW,200,1.0,-999.0,92,0.00,,,-99.99,,2013-07-02 11:33:00,
2013-07-02 04:42:00,67.0,65.0,29.87,SSW,200,1.0,-999.0,92,0.00,,,-99.99,,2013-07-02 11:42:00,
2013-07-02 05:33:00,67.0,65.0,29.87,North,0,0.0,-999.0,92,0.00,,,-99.99,,2013-07-02 12:33:00,
2013-07-02 05:43:00,67.0,65.0,29.87,North,0,0.0,-999.0,92,0.00,,,-99.99,,2013-07-02 12:43:00,
2013-07-02 06:43:00,66.0,64.0,29.89,North,0,0.0,-999.0,92,0.00,,,-99.99,,2013-07-02 13:43:00,
2013-07-02 07:33:00,66.0,64.0,29.90,North,0,0.0,-999.0,92,0.00,,,-99.99,,2013-07-02 14:33:00,
2013-07-02 07:43:00,66.0,64.0,29.90,North,0,0.0,-999.0,92,0.00,,,-99.99,,2013-07-02 14:43:00,
2013-07-02 08:33:00,66.0,64.0,29.91,North,0,0.0,-999.0,92,0.00,,,-99.99,,2013-07-02 15:33:00,
2013-07-02 08:44:00,66.0,64.0,29.91,North,0,0.0,-999.0,92,0.00,,,-99.99,,2013-07-02 15:44:00,
2013-07-02 09:33:00,67.0,64.0,29.92,SW,230,5.0,-999.0,91,0.00,,,-99.99,,2013-07-02 16:33:00,
2013-07-02 09:43:00,67.0,64.0,29.92,SW,230,5.0,-999.0,91,0.00,,,-99.99,,2013-07-02 16:43:00,
2013-07-02 10:33:00,66.0,63.0,29.94,South,190,6.0,-999.0,91,0.00,,,-99.99,,2013-07-02 17:33:00,
2013-07-02 10:43:00,66.0,63.0,29.94,South,190,6.0,-999.0,91,0.00,,,-99.99,,2013-07-02 17:43:00,
2013-07-02 11:34:00,67.0,64.0,29.97,SSE,150,7.0,-999.0,89,0.00,,,-99.99,,2013-07-02 18:34:00,
2013-07-02 11:43:00,67.0,64.0,29.97,SSE,150,7.0,-999.0,89,0.00,,,-99.99,,2013-07-02 18:43:00,
2013-07-02 12:34:00,67.0,63.0,29.98,South,190,7.0,-999.0,87,0.00,,,-99.99,,2013-07-02 19:34:00,
2013-07-02 12:43:00,67.0,63.0,29.98,South,190,7.0,-999.0,87,0.00,,,-99.99,,2013-07-02 19:43:00,
2013-07-02 13:33:00,68.0,64.0,29.98,SW,220,7.0,-999.0,87,0.00,,,-99.99,,2013-07-02 20:33:00,
2013-07-02 13:43:00,68.0,64.0,29.98,SW,220,7.0,-999.0,87,0.00,,,-99.99,,2013-07-02 20:43:00,
2013-07-02 14:33:00,68.0,64.0,29.97,SW,220,8.0,-999.0,86,0.00,,,-99.99,,2013-07-02 21:33:00,
2013-07-02 14:43:00,68.0,64.0,29.97,SW,220,8.0,-999.0,86,0.00,,,-99.99,,2013-07-02 21:43:00,
2013-07-02 15:34:00,67.0,63.0,29.96,SW,220,9.0,-999.0,87,0.00,,,-99.99,,2013-07-02 22:34:00,
2013-07-02 15:43:00,67.0,63.0,29.96,SW,220,9.0,-999.0,87,0.00,,,-99.99,,2013-07-02 22:43:00,
2013-07-02 16:33:00,67.0,63.0,29.95,SSW,210,7.0,-999.0,87,0.00,,,-99.99,,2013-07-02 23:33:00,
2013-07-02 16:44:00,67.0,63.0,29.95,SSW,210,7.0,-999.0,87,0.00,,,-99.99,,2013-07-02 23:44:00,
2013-07-02 17:33:00,67.0,63.0,29.95,South,180,12.0,-999.0,87,0.00,,,-99.99,,2013-07-03 00:33:00,
2013-07-02 17:44:00,67.0,63.0,29.95,South,180,12.0,-999.0,87,0.00,,,-99.99,,2013-07-03 00:44:00,
2013-07-02 18:33:00,67.0,63.0,29.92,SSW,200,2.0,-999.0,87,0.00,,,-99.99,,2013-07-03 01:33:00,
2013-07-02 18:42:00,67.0,63.0,29.92,SSW,200,2.0,-999.0,87,0.00,,,-99.99,,2013-07-03 01:42:00,
2013-07-02 19:36:00,68.0,64.0,29.90,WNW,290,4.0,-999.0,86,0.00,,,-99.99,,2013-07-03 02:36:00,
2013-07-02 19:43:00,68.0,64.0,29.90,WNW,290,4.0,-999.0,86,0.00,,,-99.99,,2013-07-03 02:43:00,
2013-07-02 20:35:00,67.0,63.0,29.89,WNW,300,8.0,-999.0,86,0.00,,,-99.99,,2013-07-03 03:35:00,
2013-07-02 21:33:00,67.0,63.0,29.88,WNW,300,12.0,-999.0,88,0.00,,,-99.99,,2013-07-03 04:33:00,
2013-07-02 21:43:00,67.0,63.0,29.88,WNW,300,12.0,-999.0,88,0.00,,,-99.99,,2013-07-03 04:43:00,
2013-07-02 22:44:00,68.0,64.0,29.88,WNW,290,11.0,-999.0,88,0.00,,,-99.99,,2013-07-03 05:44:00,
2013-07-02 22:45:00,68.0,65.0,29.89,West,280,12.0,-999.0,89,0.00,,,-99.99,,2013-07-03 05:45:00,
2013-07-02 23:45:00,67.0,64.0,29.88,WNW,300,9.0,-999.0,90,0.00,,,-99.99,,2013-07-03 06:45:00,